Theta_e
342 342 342 343 345 344 343 342 342 342 341 340 340 340 340 339 339 338 338 338 337 337 337 337 337 337 336 336 336 335 335 333 332 331 332 333 334 334 334 333 333 333 333 333 332 332 332 331 331 331 330 329 328 328 328 329 330 330 330 331 331 332 332 332 331 331 331 330 329 328 328 328 328 328 329 329 330 329 329 329 330 331 331 331 330
342 342 342 343 344 343 341 341 342 342 341 340 340 340 340 339 339 338 339 338 337 337 337 338 338 337 336 335 336 335 333 332 331 331 332 332 333 333 333 333 332 332 332 331 331 330 330 329 329 328 327 327 326 326 326 327 328 328 329 330 330 331 331 332 332 332 332 331 330 330 329 328 327 327 327 328 328 329 329 329 329 330 331 331 331
341 341 342 342 342 342 342 341 341 342 341 341 340 340 340 340 339 339 338 338 338 338 338 338 337 336 335 334 334 333 331 331 331 331 332 332 333 333 332 332 331 331 330 330 329 328 328 327 327 326 327 327 327 327 327 326 327 327 328 328 328 328 329 329 330 332 332 331 331 331 330 329 329 328 328 327 327 327 328 328 329 330 330 331 331
338 341 341 341 342 342 342 341 341 341 341 341 340 340 340 339 339 339 338 338 338 338 338 337 336 334 333 332 332 331 331 332 332 333 333 333 333 332 332 331 329 329 328 328 327 326 326 325 325 326 327 327 327 326 325 324 324 324 325 326 325 325 326 326 327 329 330 331 331 331 330 330 330 329 329 329 328 327 327 328 328 329 329 330 330
336 341 341 340 342 341 340 340 340 341 341 340 340 340 340 339 339 339 339 339 338 337 337 335 334 332 331 332 332 332 333 333 334 334 333 333 332 331 331 330 328 327 327 326 326 325 325 325 325 326 327 326 325 324 323 322 322 322 323 324 325 324 324 324 324 325 327 329 330 331 331 330 330 330 329 329 329 328 328 328 328 328 328 329 329
334 338 340 340 340 339 339 340 340 341 340 340 340 339 339 339 339 339 339 338 337 336 335 333 332 332 333 333 333 334 335 334 334 333 332 331 331 331 330 329 328 326 326 325 325 324 324 325 325 326 326 325 324 323 322 322 321 322 323 324 325 325 324 324 324 324 325 327 329 330 331 329 329 330 329 329 329 329 328 328 328 328 328 328 328
334 335 338 338 339 338 339 340 340 340 340 340 339 338 339 339 338 338 337 336 335 335 333 333 333 334 334 334 334 334 334 332 332 331 331 331 330 330 329 328 327 325 324 324 323 323 323 324 325 325 324 324 323 322 322 321 321 322 323 325 326 325 325 325 325 325 325 326 327 329 330 329 329 329 330 330 329 329 329 329 328 328 328 328 328
334 334 336 338 338 338 338 339 340 340 340 339 338 337 337 337 337 337 336 335 334 334 334 334 334 334 335 335 334 334 332 331 331 331 331 330 330 328 326 325 324 323 323 322 322 322 323 324 324 324 324 323 322 321 321 321 322 322 323 324 325 325 325 325 326 327 327 327 326 327 328 329 329 329 330 330 329 329 329 329 329 328 328 328 327
334 333 336 337 337 338 338 338 339 339 338 337 337 337 336 336 336 336 335 335 335 334 335 334 335 335 334 334 333 332 331 330 330 330 330 329 328 325 323 322 322 322 322 321 322 322 323 324 324 324 323 322 322 321 321 321 322 323 324 325 325 325 325 325 327 327 327 328 327 327 326 327 328 329 329 330 330 329 328 329 329 329 329 328 328
335 333 336 337 337 338 337 337 338 338 337 336 337 336 335 335 335 335 335 335 335 335 335 335 335 334 333 333 332 331 330 330 330 329 328 327 323 321 321 321 321 320 320 321 322 323 324 324 323 323 322 321 321 321 321 322 322 323 325 326 327 326 325 326 326 327 327 327 327 327 326 326 327 327 328 329 329 329 329 329 329 330 329 328 327
335 334 336 337 336 337 336 337 337 338 337 336 335 335 335 336 335 335 335 335 336 335 335 335 334 333 333 332 331 330 330 329 328 326 325 323 321 320 320 320 319 319 320 322 323 324 323 323 322 321 321 321 321 321 321 322 322 323 325 327 328 327 326 326 326 326 327 327 327 327 326 326 327 327 328 329 329 329 329 328 328 329 329 328 327
336 336 336 336 336 336 336 337 338 338 336 335 335 335 335 335 336 336 335 335 336 335 334 333 333 332 331 331 330 330 330 328 326 324 322 321 321 320 319 318 319 319 321 322 323 323 323 322 322 321 321 321 321 321 321 322 323 324 325 327 327 327 327 327 327 326 326 326 327 327 327 326 326 327 327 328 328 328 328 329 329 329 329 329 328
335 336 336 336 335 335 336 338 338 337 336 335 334 334 334 335 335 336 336 335 335 334 333 333 332 331 331 330 330 330 329 327 325 323 321 320 320 319 319 319 319 320 322 323 323 323 322 322 321 321 321 322 321 321 321 323 324 323 325 326 325 325 326 326 327 327 327 327 327 327 327 327 327 327 327 327 327 328 328 328 329 329 329 330 329
336 336 336 336 334 334 335 337 337 336 335 334 333 333 334 334 335 335 335 334 334 333 333 332 332 331 330 330 330 331 329 326 324 322 321 321 319 319 320 320 320 321 322 323 323 323 322 322 322 322 322 321 321 322 323 323 323 323 325 325 324 324 325 326 326 326 327 327 327 327 327 327 327 327 327 327 327 327 328 328 328 328 328 329 329
336 336 336 336 334 333 334 335 335 334 334 333 333 333 333 334 334 334 334 334 333 333 332 331 331 331 330 330 331 330 328 324 322 321 320 319 318 320 321 321 321 322 323 323 323 323 323 322 322 322 322 321 322 323 323 323 323 324 325 325 325 326 326 326 325 324 325 326 326 326 326 327 327 327 327 327 327 327 328 328 328 328 328 329 329
337 337 336 334 333 333 334 334 334 333 333 333 333 333 334 334 334 334 334 333 332 332 331 331 331 331 330 330 330 328 325 323 321 321 319 318 319 321 322 321 322 322 323 323 323 323 323 322 322 322 322 322 323 323 323 323 324 325 325 325 325 326 327 326 325 324 325 325 325 325 325 325 326 327 327 327 327 327 328 329 328 329 329 329 329
336 337 335 334 333 334 334 334 333 333 333 333 333 333 334 334 334 334 333 332 331 331 330 330 330 329 329 330 329 326 323 322 321 319 319 320 321 322 322 322 321 322 322 323 323 323 323 322 323 323 322 322 323 323 323 323 324 324 325 324 324 325 326 326 325 325 325 325 325 325 324 323 324 326 327 327 327 328 328 328 328 329 329 329 329
333 335 335 334 334 334 335 334 333 333 333 332 333 332 333 333 333 332 332 331 330 330 329 329 328 328 329 328 326 323 321 321 320 319 320 321 321 321 321 320 320 321 322 323 323 323 323 323 323 323 323 323 323 324 324 324 324 324 324 325 324 324 325 325 325 325 325 326 326 326 324 323 323 324 325 326 326 327 328 328 328 328 328 328 329
333 334 333 333 334 334 334 334 332 332 332 332 332 332 332 332 331 331 330 330 330 330 329 328 328 328 327 325 323 322 321 320 320 321 321 321 320 320 320 320 320 321 322 322 322 322 323 323 323 323 323 323 323 323 324 323 323 323 324 325 325 324 325 325 324 324 325 325 325 326 326 324 323 323 325 325 325 326 327 328 328 328 328 328 328
333 333 333 332 333 333 333 333 332 332 332 332 332 331 331 330 330 330 329 329 330 329 328 327 327 326 324 322 321 320 319 319 321 321 321 320 320 320 320 320 320 321 321 321 321 322 322 322 322 323 323 323 322 322 322 322 322 323 323 324 324 324 324 324 324 324 325 325 325 326 326 326 325 325 326 326 326 326 326 327 327 327 327 328 328
333 333 332 333 333 333 333 332 332 331 331 331 331 330 330 329 329 328 328 329 328 327 327 326 325 324 322 321 320 320 319 320 321 321 320 320 320 320 320 319 320 320 321 321 321 321 321 321 322 322 322 322 321 321 321 321 321 322 322 323 323 323 323 323 323 324 324 325 325 325 326 326 326 326 326 326 326 325 325 325 324 324 324 325 327
332 332 333 333 333 332 331 331 331 331 331 331 329 328 328 327 327 327 327 327 326 326 325 323 322 321 320 320 319 320 320 320 321 321 320 320 320 319 319 319 319 320 321 321 321 320 320 321 322 322 321 320 320 320 320 320 320 320 321 322 322 321 321 321 322 323 323 324 324 325 325 326 326 326 326 326 326 324 324 323 323 323 322 322 325
331 332 333 333 333 331 330 330 330 331 330 328 327 326 326 326 326 326 326 325 324 323 322 321 320 319 319 319 320 320 320 320 321 320 320 319 319 319 318 318 319 320 321 321 321 320 320 321 321 320 319 318 317 318 318 318 317 318 318 319 319 319 319 320 320 321 321 322 323 323 324 324 325 325 326 326 326 326 325 323 323 323 322 321 324
332 332 332 332 332 330 329 329 329 328 327 326 326 325 325 326 326 325 324 323 322 321 320 319 319 319 319 320 320 321 321 321 320 319 318 318 318 318 319 319 319 320 320 320 320 319 319 320 319 318 317 316 316 316 317 317 316 315 315 315 316 317 318 319 320 320 320 321 321 322 322 322 323 323 324 325 326 326 326 324 323 324 323 322 323
329 329 330 330 330 329 328 328 328 327 326 325 324 324 323 324 324 323 322 321 319 318 318 318 319 319 320 321 321 321 321 319 318 318 318 318 319 319 319 319 320 320 320 319 319 319 318 318 317 317 316 316 315 315 315 316 315 314 314 314 315 316 317 319 319 320 320 320 320 320 320 321 321 322 323 324 325 325 325 325 325 325 324 324 323
326 327 328 328 327 327 327 327 326 325 324 323 322 323 322 322 321 321 321 319 318 317 317 318 318 318 319 321 321 320 319 318 317 317 318 318 319 318 318 318 319 319 319 319 318 318 317 317 317 316 316 316 315 314 314 314 314 314 314 314 315 317 318 318 319 319 319 319 319 318 318 318 319 320 321 321 323 324 324 325 325 325 325 324 324
325 325 326 326 326 326 325 325 324 323 322 322 322 322 321 320 320 319 318 317 316 316 317 316 317 319 320 321 320 318 317 317 317 318 318 318 317 316 317 317 318 319 319 318 318 317 317 317 317 316 316 316 315 314 314 314 315 315 315 315 315 316 317 318 318 318 318 317 317 317 316 316 317 317 317 318 319 321 322 323 324 325 325 325 324
323 324 324 325 325 324 323 323 322 322 322 321 321 321 320 319 318 318 317 316 315 315 316 316 318 319 320 319 318 317 316 317 317 317 317 316 315 315 316 317 317 317 317 317 317 317 316 316 316 316 315 315 314 314 314 315 315 315 315 315 314 314 315 316 317 317 316 316 316 316 315 315 316 316 316 316 316 317 318 320 321 323 323 324 324
322 322 323 323 323 322 322 322 321 321 320 320 320 320 319 318 317 317 316 315 314 314 315 317 317 317 317 317 316 315 316 316 316 316 315 315 315 315 316 316 316 316 316 316 315 315 315 315 315 314 314 314 314 313 313 314 314 314 314 314 314 313 314 315 316 315 315 315 315 315 315 315 315 316 315 315 315 315 315 316 318 319 320 321 322
321 321 321 321 321 321 321 321 320 320 319 319 319 319 318 318 317 316 315 314 314 314 315 315 315 316 316 315 315 315 316 316 315 315 315 315 315 315 315 315 315 315 315 314 314 314 314 314 314 313 313 313 313 312 312 312 312 312 313 313 313 313 313 313 313 314 314 313 313 314 314 314 314 315 315 315 314 314 314 315 315 316 317 318 319
320 320 320 321 321 320 320 320 319 319 318 318 318 318 318 318 317 314 313 312 313 313 314 314 314 315 315 315 315 316 316 315 315 315 314 314 314 314 314 314 314 314 314 313 313 313 313 313 313 313 312 312 311 311 311 311 311 311 311 312 312 312 312 312 312 312 312 312 312 311 312 312 312 313 314 314 314 314 314 314 315 315 315 316 316
320 321 321 321 320 320 319 319 318 318 318 318 317 317 317 316 315 313 311 311 312 312 313 313 314 315 315 315 315 315 315 315 314 314 314 314 314 314 314 313 313 313 313 313 313 312 312 312 312 312 311 311 310 309 309 310 310 310 310 310 311 311 311 311 310 311 311 310 310 310 310 310 311 311 312 313 314 314 314 314 314 314 314 314 314
321 321 321 320 320 319 319 319 318 318 318 317 317 316 316 315 314 312 311 311 312 312 313 314 315 316 315 315 315 315 314 314 314 314 314 313 313 313 313 313 313 312 312 312 312 311 311 311 310 310 309 309 308 307 307 308 308 308 308 309 309 309 309 309 308 308 308 308 309 309 309 309 309 310 310 312 313 312 312 312 313 313 312 312 311
320 321 320 320 319 319 319 318 318 318 317 316 316 316 315 314 314 313 312 311 311 311 312 314 315 315 315 315 315 314 314 313 313 313 313 313 313 313 313 312 312 312 311 311 310 310 309 309 308 307 307 305 305 304 305 305 305 305 306 306 307 307 306 306 306 305 305 305 305 305 306 306 307 307 308 310 311 311 311 311 311 311 311 310 310
320 320 320 320 319 319 319 318 318 317 316 316 316 316 315 314 313 312 312 311 311 311 312 313 315 315 315 314 314 313 313 313 313 313 313 313 313 312 312 311 311 310 309 309 308 307 306 305 304 303 303 301 301 301 301 301 301 302 302 303 303 303 302 302 301 301 301 300 301 301 301 302 303 304 305 307 308 309 309 310 309 309 309 308 308
320 320 320 320 319 319 319 319 318 317 316 316 316 316 315 313 312 311 312 312 311 311 312 312 314 314 314 313 313 313 312 312 312 312 312 312 311 311 310 309 308 308 307 305 304 303 302 301 300 299 299 298 298 298 298 298 298 298 298 298 299 299 298 298 298 298 298 298 298 298 299 299 299 300 301 303 304 306 307 307 307 307 307 306 306
320 320 320 319 319 319 319 319 317 316 316 317 316 315 314 313 312 311 311 312 311 311 311 312 313 313 313 313 312 312 312 311 311 311 311 310 310 309 308 306 306 305 303 302 301 299 298 298 297 297 297 296 296 296 296 296 296 296 296 296 296 296 297 297 297 297 297 297 298 298 298 298 298 298 299 299 300 301 302 303 304 304 304 304 304
320 320 319 319 319 319 318 317 316 316 317 317 316 315 314 313 312 311 311 311 310 310 311 311 312 312 312 312 312 311 311 311 310 310 310 309 308 306 304 304 303 302 300 299 298 297 296 296 296 296 295 295 295 295 295 295 295 295 295 295 295 295 295 296 296 296 296 297 297 297 297 297 298 298 298 298 298 298 299 300 301 302 302 303 303
320 319 319 319 318 318 318 317 316 317 317 316 314 314 313 312 311 311 310 310 310 310 311 311 311 312 311 311 310 310 310 309 309 308 307 306 304 303 302 301 300 299 298 297 296 296 296 295 295 295 295 295 294 294 294 294 295 295 295 295 295 295 295 295 295 295 295 295 296 296 297 297 297 297 297 297 297 297 298 299 299 300 301 301 301
319 319 319 318 318 318 318 317 317 318 316 314 313 313 312 311 311 310 310 310 310 311 311 311 311 311 310 310 309 309 308 308 307 305 304 303 302 301 300 299 298 297 296 296 295 295 295 295 294 294 294 294 294 294 294 294 294 294 295 295 295 295 294 295 294 294 294 295 295 295 296 296 296 296 296 297 297 297 297 298 298 299 299 299 299
319 319 319 318 318 318 318 317 318 317 314 313 313 312 311 311 311 310 310 310 311 311 310 310 310 309 309 308 307 307 306 304 303 302 301 300 299 299 298 297 296 296 295 295 295 295 295 295 294 294 294 294 294 294 294 294 294 294 294 294 294 294 294 294 294 294 294 294 294 294 295 295 296 296 296 296 296 297 297 297 298 298 298 298 298
319 319 318 318 318 318 317 317 316 315 313 313 312 311 311 311 310 310 311 311 310 309 309 308 308 307 307 306 305 304 302 301 300 300 299 298 297 297 296 296 295 295 295 295 295 294 294 294 294 294 294 294 294 294 294 294 294 294 294 294 294 294 294 294 294 294 294 294 294 294 295 295 295 295 295 296 296 296 296 297 297 297 297 297 297
318 318 318 318 318 317 317 316 314 313 312 312 312 312 311 311 310 311 311 310 309 308 307 306 305 305 304 303 302 301 300 299 298 298 297 297 296 296 295 295 295 295 294 294 294 294 294 294 294 294 294 294 294 294 294 294 294 294 294 294 294 294 294 294 294 294 293 294 294 294 294 294 294 294 295 295 296 296 296 296 296 297 297 297 297
318 318 318 318 317 316 315 314 313 312 312 311 312 313 312 310 310 310 309 308 307 306 305 304 303 302 301 300 299 299 298 298 297 296 296 296 295 295 295 294 294 294 294 294 294 294 294 294 294 294 293 293 294 293 293 293 294 294 294 293 294 294 294 294 294 293 293 293 294 294 294 294 294 294 294 295 295 295 296 296 296 296 296 296 297
318 318 318 316 315 315 314 313 312 312 312 311 312 313 312 310 309 309 308 307 306 305 303 302 301 300 299 298 298 298 297 296 296 295 295 295 295 295 294 294 294 294 294 294 294 294 294 294 294 293 293 293 293 293 293 293 293 293 293 293 293 293 293 293 293 293 293 293 293 293 294 294 294 294 294 294 294 295 295 296 296 296 296 296 296
318 317 316 315 314 314 313 313 312 311 311 312 312 312 311 309 308 307 307 306 305 303 302 301 300 299 298 297 297 296 296 295 295 295 295 295 294 294 294 294 294 294 294 294 294 294 293 293 293 293 293 293 293 293 293 293 293 293 293 293 293 293 293 293 293 293 293 293 293 293 293 294 294 294 294 294 294 294 295 295 296 296 296 296 296
317 317 315 314 314 313 313 312 311 310 310 311 310 309 309 308 308 306 305 304 303 302 300 299 298 298 297 297 296 295 295 295 294 294 294 294 294 294 294 294 294 294 294 293 293 293 293 293 293 293 293 293 293 293 293 293 293 293 293 293 293 293 293 293 293 293 293 293 293 293 293 293 294 294 294 294 294 294 295 295 296 296 296 296 296
316 316 315 314 314 313 313 312 310 309 309 309 308 308 307 307 306 305 303 302 301 300 298 298 297 297 296 296 295 295 295 294 294 294 294 294 294 294 294 294 294 293 293 293 293 293 293 293 293 293 293 293 292 292 292 292 292 292 292 292 292 292 292 292 292 292 292 292 292 293 293 293 293 293 293 293 294 294 294 295 295 295 295 295 295
316 315 315 314 313 313 312 311 310 309 308 308 307 307 306 306 304 302 300 299 298 297 297 296 296 296 295 295 295 294 294 294 294 294 294 294 294 294 294 294 293 293 293 293 293 293 293 293 293 292 292 292 292 292 291 291 292 292 292 292 292 292 291 291 291 292 292 292 292 293 293 292 292 292 293 293 293 294 294 294 295 295 295 295 295
315 315 314 314 313 313 311 311 309 308 307 306 306 305 304 302 300 299 298 297 297 296 296 296 295 295 295 295 294 294 294 294 294 294 294 294 294 294 294 293 293 293 293 293 293 293 292 292 292 292 292 292 291 291 291 291 291 291 292 292 291 291 291 291 291 292 292 292 292 292 292 292 292 292 292 292 293 293 294 294 295 295 295 295 295
314 314 313 313 313 312 311 310 309 307 306 304 303 301 300 298 297 297 297 297 296 296 296 295 295 295 295 294 294 294 294 294 294 294 294 294 294 294 293 293 293 293 293 293 293 292 292 292 292 292 292 291 291 291 291 291 291 291 291 292 292 292 292 292 292 292 293 292 292 291 291 291 291 291 291 292 292 293 293 294 294 294 295 295 295
Wind_Speed
16 15 14 15 17 17 18 18 18 18 18 19 18 17 17 17 17 16 16 15 14 13 11 10 9 7 7 5 3 2 1 0 0 1 1 1 3 5 6 6 7 7 7 8 9 9 10 11 12 13 14 15 15 16 16 17 17 17 18 18 19 19 19 19 18 19 20 20 21 21 22 23 23 22 22 22 22 22 23 24 25 25 25 26 26
17 16 14 13 15 17 17 18 18 18 18 19 18 17 17 17 16 16 15 14 13 12 10 9 7 6 6 4 3 2 1 1 1 1 1 1 2 4 6 7 9 9 10 10 11 12 12 13 14 14 14 15 15 15 16 17 17 18 18 19 19 19 20 20 19 19 20 20 20 20 21 21 22 22 22 22 21 21 23 23 23 23 22 24 26
17 17 16 14 14 16 17 16 16 17 18 18 18 16 16 16 15 15 14 13 11 10 9 8 8 6 5 4 4 3 3 2 3 3 3 4 5 6 8 9 11 12 12 13 13 13 14 14 14 14 14 14 15 16 17 18 18 18 18 19 20 21 22 22 20 19 20 21 21 20 20 19 19 19 20 20 18 17 19 21 21 21 20 21 24
16 18 16 14 15 15 15 16 16 17 18 18 17 15 14 15 14 14 13 12 11 10 10 9 8 6 5 5 4 4 4 4 4 5 5 6 7 8 10 12 13 13 13 14 14 14 14 14 14 14 14 15 17 19 20 20 20 19 19 19 21 23 23 24 23 21 21 21 19 19 18 17 17 16 16 17 16 16 17 18 20 21 21 21 22
10 16 16 15 16 16 16 16 16 17 17 17 16 14 14 14 14 14 13 12 12 11 11 9 8 6 6 6 5 5 5 5 5 4 6 7 9 10 12 13 14 14 14 14 15 15 15 16 16 16 16 18 20 21 23 23 23 22 21 19 20 21 23 24 25 24 24 23 22 21 18 14 16 18 16 16 17 17 16 16 18 19 21 23 23
8 11 16 16 17 18 18 17 17 17 17 16 15 14 14 13 14 14 13 12 11 11 10 9 8 7 6 5 5 4 3 3 2 4 7 8 10 12 13 13 14 14 14 15 15 16 16 16 17 18 19 20 22 23 24 25 25 25 23 20 19 20 21 23 24 25 25 25 24 25 25 22 22 20 17 16 18 18 17 18 19 19 21 23 24
13 9 11 14 17 18 19 18 17 17 17 16 15 14 14 14 14 13 12 11 10 10 9 7 6 5 5 3 3 2 1 2 4 7 7 9 11 13 13 14 14 14 14 15 16 16 16 17 18 19 20 21 22 23 25 25 26 26 24 21 19 19 20 21 23 23 25 26 24 24 28 28 26 23 20 18 19 20 19 19 20 20 21 22 23
18 14 13 14 17 18 19 19 17 17 16 16 15 14 13 13 13 12 11 10 9 9 8 6 4 3 2 1 1 0 2 5 8 9 9 10 12 13 14 14 14 14 15 15 16 16 16 16 18 19 20 21 23 23 24 25 25 26 24 21 18 18 20 20 21 22 23 25 24 24 27 25 23 25 25 22 22 22 21 20 20 20 21 22 22
21 20 18 17 18 19 19 18 17 17 16 15 15 14 13 12 12 11 10 8 8 7 6 4 3 2 1 0 1 3 5 8 10 11 11 12 12 13 13 14 14 14 15 15 15 15 15 16 18 19 20 20 22 22 23 24 24 24 23 20 17 17 19 19 20 22 22 23 22 23 25 25 24 22 22 22 23 24 24 22 20 18 20 22 23
23 24 22 21 20 20 19 18 18 17 16 15 15 15 13 12 11 10 9 7 7 6 4 3 3 2 0 2 4 6 7 9 10 11 12 12 12 12 13 13 14 13 13 13 13 14 15 16 17 18 19 19 20 22 22 23 23 22 20 18 17 18 19 19 19 21 21 22 21 21 21 23 24 19 16 18 21 24 26 25 21 20 22 23 23
23 23 25 23 21 20 20 19 18 17 16 16 16 15 13 12 11 10 9 7 6 5 3 2 2 1 3 6 7 7 7 8 9 11 12 12 12 12 13 13 12 12 11 11 12 13 14 15 16 17 18 19 20 21 22 21 21 21 19 15 15 16 17 18 19 20 21 20 19 18 19 19 20 20 18 17 19 22 25 26 24 22 23 25 24
22 23 26 25 22 21 20 19 18 18 17 17 16 16 14 12 11 9 9 8 6 5 3 1 2 5 7 9 9 8 8 8 10 12 12 12 13 14 14 13 12 11 10 11 12 13 14 15 16 17 18 18 19 20 20 20 20 20 19 15 14 14 15 16 17 19 20 20 18 17 17 17 17 20 21 20 20 22 23 25 26 23 23 24 24
22 23 27 27 24 23 21 20 19 19 19 18 16 15 13 12 10 9 9 7 5 4 2 3 6 9 10 10 10 9 8 9 11 12 12 13 13 14 14 14 14 12 11 12 14 14 15 16 17 17 17 17 18 18 19 19 19 19 18 16 16 16 16 16 16 16 17 18 18 18 17 17 17 19 21 21 22 22 23 25 26 25 24 25 26
25 26 28 27 25 24 22 20 19 19 18 17 15 14 13 11 10 9 8 6 4 3 3 6 8 10 11 12 11 10 9 10 11 12 12 13 13 13 13 13 13 12 12 14 15 15 15 16 17 17 16 16 17 17 17 18 18 18 18 17 16 16 15 16 16 14 14 15 16 18 18 18 18 18 19 19 19 20 21 23 23 24 25 25 27
29 29 28 28 25 23 21 20 19 18 18 16 15 13 12 10 10 9 7 5 4 4 5 7 9 11 14 14 12 10 10 11 11 12 12 12 12 12 11 11 11 11 13 14 14 14 15 16 16 15 15 15 16 16 16 17 17 18 17 16 16 16 15 14 15 15 14 15 15 16 17 17 16 17 18 19 18 18 20 20 21 22 24 24 25
32 31 29 27 25 22 20 20 19 18 18 17 15 13 11 10 9 8 6 5 5 5 7 10 12 15 16 16 13 11 10 10 11 11 11 11 11 11 10 11 12 12 13 13 13 14 15 14 14 13 14 14 14 15 15 16 17 17 17 17 16 16 15 13 14 16 15 15 15 16 17 17 15 15 15 16 17 17 18 19 19 21 23 23 22
33 32 29 27 25 23 20 20 20 20 19 17 15 13 11 10 8 7 6 6 6 8 10 13 16 18 18 16 13 10 9 9 10 9 9 9 10 9 9 11 12 12 12 12 12 14 14 13 13 12 13 13 14 15 15 15 16 17 18 18 17 17 16 14 14 15 15 16 15 16 17 17 16 15 14 14 14 16 18 18 19 20 22 24 24
30 28 27 26 25 23 21 21 21 20 19 16 15 14 12 10 9 7 6 7 8 10 13 17 19 18 15 12 10 9 8 8 8 8 7 8 8 8 9 11 12 11 11 11 12 12 12 12 12 12 13 14 14 14 15 15 16 18 19 18 17 17 16 15 14 15 16 17 17 17 16 16 16 16 15 15 15 14 15 16 17 18 20 23 25
30 27 26 24 24 23 22 22 21 19 18 17 15 14 12 10 8 7 7 8 10 13 17 20 19 15 11 9 7 7 7 7 7 6 6 6 7 8 10 11 11 10 10 11 11 10 10 11 12 13 14 14 14 14 14 15 16 17 18 17 16 16 16 15 15 16 17 18 19 19 17 16 16 16 17 17 16 15 14 13 13 15 17 21 23
32 30 28 26 24 23 23 22 21 20 19 17 14 12 10 8 6 5 7 9 12 16 19 18 15 11 9 7 6 7 7 6 5 4 5 6 7 9 10 10 9 9 10 11 10 10 10 11 12 13 14 14 14 15 15 15 16 17 17 17 17 17 16 16 16 16 16 17 18 19 18 17 17 16 18 18 16 15 14 14 13 13 15 18 22
34 33 31 29 27 25 24 23 22 21 18 15 13 11 8 6 5 6 8 12 15 18 17 14 10 8 7 6 6 6 5 4 3 4 5 7 8 9 10 9 9 10 11 11 11 11 11 11 12 13 13 14 14 15 15 16 16 17 17 18 18 18 18 18 18 18 18 18 17 18 17 17 17 17 19 19 16 14 14 15 15 14 14 15 19
33 33 32 31 28 26 25 24 23 20 17 14 12 10 7 5 5 8 11 15 17 16 13 10 8 6 5 4 4 3 2 2 3 4 5 7 8 9 10 10 11 11 11 11 11 12 12 12 12 12 13 14 15 16 16 17 18 19 19 19 19 20 20 20 20 20 19 19 19 19 19 18 18 17 18 18 17 16 16 16 16 14 14 14 14
33 34 34 31 29 27 26 25 23 21 18 15 12 8 6 5 7 11 14 15 14 11 10 8 6 5 4 4 3 1 1 2 3 5 6 6 8 10 12 12 12 12 12 11 11 12 12 11 11 11 12 13 14 16 16 17 19 20 20 20 20 20 20 20 20 21 21 21 21 21 22 22 20 19 18 18 18 19 18 17 16 15 14 13 12
35 35 34 32 30 28 27 25 23 20 17 13 10 7 5 5 9 12 13 12 9 8 7 6 5 4 3 2 2 0 1 3 4 5 6 9 12 13 13 13 12 12 11 11 11 11 11 11 11 11 12 13 13 14 15 16 17 18 19 20 19 20 20 20 21 22 23 23 23 23 24 23 23 22 20 19 18 19 18 17 16 16 14 13 13
35 34 35 35 32 30 27 24 20 17 14 11 8 5 4 6 9 11 10 8 7 6 6 5 4 3 3 2 2 2 3 4 5 7 10 12 13 12 11 11 11 10 11 11 10 10 10 10 11 11 12 12 13 13 14 15 16 18 19 19 19 20 20 20 21 22 23 23 23 25 25 25 25 24 23 22 20 19 18 18 17 17 15 14 13
34 35 36 35 32 28 25 22 18 15 12 10 7 4 4 7 9 9 8 8 6 5 5 5 4 3 3 3 3 4 4 5 8 11 12 12 11 10 10 10 10 9 10 10 10 10 10 10 11 11 11 12 12 13 14 16 18 19 20 20 20 20 20 20 20 21 22 23 25 27 28 29 29 28 27 25 23 21 20 19 18 18 16 14 12
31 35 36 33 30 26 22 19 17 14 12 9 5 3 7 9 9 8 7 7 6 5 5 4 3 5 5 5 5 5 6 10 12 13 12 11 10 10 10 10 9 9 9 9 9 10 10 10 11 11 11 12 13 15 17 18 19 20 20 19 19 19 20 20 20 21 23 24 26 28 29 31 32 31 31 30 28 26 24 22 20 19 17 14 12
29 34 34 31 28 24 20 18 16 14 12 9 4 5 8 8 7 6 6 6 5 5 4 4 6 8 7 7 7 9 12 14 14 12 11 10 10 9 9 9 9 9 10 10 10 11 11 12 12 12 12 13 15 17 19 20 21 21 20 19 19 19 20 20 20 21 23 24 25 26 28 30 31 31 31 33 33 31 30 27 25 23 20 18 17
34 33 32 30 28 24 22 19 17 15 13 8 4 5 6 6 6 6 6 5 4 4 5 7 9 9 9 10 11 14 15 15 13 11 10 9 9 9 9 9 9 10 10 11 11 12 13 13 13 13 13 14 15 18 20 21 21 21 21 20 20 19 19 19 19 20 22 23 24 25 26 27 27 28 29 30 31 31 32 32 30 28 25 24 23
33 31 32 32 28 26 24 22 19 17 14 8 5 6 7 6 6 7 5 3 3 6 8 9 10 11 11 13 15 15 15 14 12 11 10 9 9 9 9 9 9 10 10 11 11 11 12 13 13 13 14 14 17 19 20 20 20 21 21 20 20 20 19 19 19 20 21 22 23 24 24 25 26 26 27 28 28 29 30 31 31 30 29 28 28
32 33 34 32 28 27 26 23 21 17 12 8 8 10 8 6 6 5 3 4 5 8 10 11 12 14 14 15 16 15 15 13 12 10 9 9 9 9 9 9 9 9 9 10 10 10 11 12 13 13 14 16 18 20 19 19 19 19 19 19 19 19 19 20 20 20 21 22 23 23 24 25 27 27 27 27 27 27 27 28 29 29 30 31 32
34 34 31 28 28 28 26 24 21 16 11 10 12 12 8 5 4 3 4 5 6 9 11 12 14 16 16 16 16 15 14 12 11 10 9 9 8 8 8 8 8 9 9 9 10 11 12 12 13 13 14 16 19 19 18 18 18 18 18 18 18 18 19 20 21 21 22 23 24 25 25 26 28 29 28 26 26 27 26 26 27 29 31 32 33
34 32 29 28 29 27 25 23 20 17 14 13 11 9 6 4 2 3 6 8 8 10 12 14 15 16 16 16 15 14 12 11 10 9 9 9 8 8 8 9 9 9 9 9 10 11 12 13 13 14 15 17 19 18 18 18 18 18 18 18 18 19 20 22 23 23 24 24 25 25 26 26 27 28 28 26 24 25 25 25 25 27 29 31 33
33 31 30 29 28 26 24 22 21 19 17 14 11 7 5 5 3 4 9 11 10 11 13 15 16 16 16 16 14 13 12 11 11 10 10 9 9 9 10 10 10 9 9 10 11 12 13 14 14 15 16 18 19 19 19 19 19 19 20 20 20 21 22 23 25 25 26 27 28 27 27 27 27 27 27 25 23 23 23 23 24 26 28 29 30
31 32 30 28 28 27 26 24 22 21 18 14 11 8 7 6 5 8 13 13 11 12 14 16 17 17 16 15 14 13 12 12 11 11 10 10 10 10 10 10 9 9 10 11 12 13 14 15 16 16 17 19 20 20 19 20 20 20 20 21 21 22 24 25 26 27 28 29 30 30 30 30 29 29 27 25 23 22 21 22 24 26 27 28 30
32 33 31 29 29 28 27 25 23 20 18 14 12 10 8 7 6 10 15 15 12 13 14 15 17 17 16 15 14 13 12 12 11 11 10 10 10 10 10 9 9 10 12 13 14 15 16 16 16 16 17 19 19 19 18 18 19 19 20 21 22 23 24 26 27 28 29 30 30 31 32 32 32 31 29 27 25 23 22 23 24 25 26 29 30
34 32 30 29 28 27 27 25 22 19 17 15 12 10 9 8 7 12 16 15 14 15 15 16 17 18 17 16 14 12 12 12 11 11 10 11 11 11 11 11 11 12 13 13 14 15 15 15 15 15 16 17 18 17 17 17 17 18 19 21 22 23 25 26 27 28 28 29 30 30 31 31 32 31 30 29 28 27 26 26 26 25 26 29 30
34 31 30 29 27 27 26 23 21 19 17 14 11 10 10 8 8 14 17 15 15 17 16 17 18 18 17 15 13 12 11 12 12 11 11 12 12 12 12 12 11 12 13 13 14 14 14 14 15 16 16 17 18 18 18 18 18 19 20 22 23 23 25 26 27 27 27 28 28 29 29 30 30 29 29 30 30 30 30 31 30 28 27 28 28
33 31 30 30 29 28 25 21 20 19 17 13 10 10 10 9 11 17 18 15 16 17 18 19 19 18 16 14 12 12 11 12 12 13 13 13 13 13 12 11 11 12 12 13 13 13 14 15 16 17 18 18 20 20 20 20 21 21 22 23 24 25 26 26 27 27 27 27 28 28 29 28 27 27 27 28 30 30 31 32 32 31 29 28 27
33 31 31 31 30 29 25 22 20 19 17 14 11 10 9 10 15 20 18 16 17 19 20 20 20 18 16 14 13 13 13 13 14 15 15 14 13 13 12 11 11 11 12 13 13 13 14 16 17 18 19 20 20 21 21 21 22 23 23 24 26 26 27 26 26 27 27 28 28 28 28 27 26 26 26 27 28 30 31 32 32 32 31 28 27
33 32 32 32 30 28 25 22 20 17 15 13 12 10 10 13 19 21 18 18 20 21 21 20 19 17 16 15 15 14 14 15 15 15 15 15 13 12 11 10 11 11 12 12 13 13 15 17 18 19 20 21 21 22 22 22 23 24 24 25 27 27 27 26 27 27 27 28 28 27 27 26 25 25 26 26 27 28 29 31 31 30 29 27 28
34 34 33 32 30 27 24 21 19 15 12 11 10 9 13 19 22 21 21 22 23 22 21 20 19 18 17 17 17 16 15 16 15 14 14 14 13 11 10 10 10 11 12 13 14 15 16 18 19 20 21 22 22 23 23 23 24 24 25 26 27 27 26 26 26 27 27 26 26 25 24 24 24 25 25 26 26 27 29 30 29 27 27 28 30
35 34 33 32 29 27 24 22 19 14 10 10 10 12 17 22 23 23 24 24 23 22 21 20 19 19 19 18 17 16 16 16 15 14 13 13 13 11 11 11 10 11 12 14 15 16 16 18 19 20 21 22 22 23 23 23 24 24 25 26 26 26 25 25 26 26 25 25 24 23 23 23 24 25 25 26 27 28 29 29 28 28 28 30 32
35 33 33 31 29 28 25 22 18 14 12 12 13 17 22 24 24 25 25 24 23 21 20 20 20 20 19 19 18 17 16 15 14 13 12 12 12 11 11 11 11 11 13 15 16 16 16 17 18 20 21 21 22 22 22 23 23 23 24 25 25 24 24 24 24 24 24 22 22 22 22 23 24 25 26 26 27 28 29 29 28 29 31 32 34
34 33 33 31 29 27 25 22 18 16 15 14 15 20 24 24 24 25 24 23 22 21 20 20 20 19 19 19 18 17 15 15 14 12 12 12 12 11 12 12 12 12 14 15 16 15 15 16 18 19 20 21 21 21 22 22 23 23 24 24 24 24 23 23 24 24 22 21 20 20 20 22 24 25 26 27 28 29 29 29 29 31 33 35 37
35 36 34 30 27 26 24 21 19 18 18 18 18 20 22 23 23 23 22 22 21 21 21 20 19 19 19 18 17 17 16 15 14 13 12 12 12 11 12 12 13 13 14 15 15 15 15 16 17 18 20 20 20 21 22 22 22 23 23 23 23 24 23 23 23 23 22 21 21 21 22 23 24 25 27 29 30 30 30 30 31 33 34 36 37
38 38 33 28 27 26 24 21 21 22 21 21 21 20 20 21 22 22 21 21 21 21 21 20 19 19 18 17 16 16 16 15 15 14 13 13 13 12 13 13 13 14 14 15 15 15 15 16 17 18 19 20 21 21 22 22 22 22 22 23 23 24 23 23 24 24 23 23 24 24 24 24 25 26 28 30 31 31 32 32 33 34 35 35 35
39 36 32 30 29 27 24 22 23 23 22 23 23 21 19 20 21 21 22 22 21 21 20 20 19 19 18 17 16 16 16 16 15 15 15 15 14 14 14 15 15 15 15 16 16 16 16 17 18 19 19 20 21 22 22 22 22 21 22 22 23 24 24 24 24 24 24 25 25 24 25 25 26 28 29 30 31 32 33 33 33 33 33 33 33
38 34 32 31 29 26 25 23 22 22 23 24 23 20 19 20 22 22 22 22 22 21 20 19 19 18 18 17 16 16 16 16 16 17 16 16 15 14 15 15 15 15 16 17 17 17 17 18 18 19 20 21 22 22 22 21 20 20 21 22 23 23 23 23 22 22 23 23 23 24 25 27 28 29 30 30 31 31 31 31 31 31 31 31 32
37 33 32 30 27 26 25 22 21 23 24 24 22 21 21 22 22 22 22 21 21 21 20 19 19 18 18 18 17 17 17 17 17 18 17 17 17 15 15 15 15 16 17 18 18 18 18 17 18 19 20 21 22 22 21 20 19 19 20 21 22 22 21 21 20 20 21 22 23 25 27 28 29 29 29 29 29 29 29 30 29 29 29 29 29
37 35 33 31 28 27 24 22 24 26 25 23 23 23 24 23 22 22 21 20 20 20 20 20 19 18 18 18 17 18 18 18 18 18 17 18 17 17 16 15 16 17 18 18 18 18 18 17 17 18 20 21 21 20 19 18 18 19 19 19 20 20 19 19 18 18 20 22 24 26 27 28 28 28 28 27 27 26 27 27 27 27 27 27 27
Wind_Direction
177 187 188 179 170 165 166 172 178 177 176 176 175 174 174 176 178 178 180 181 182 183 182 183 190 199 203 191 178 185 173 181 10 39 18 304 275 277 289 305 324 333 332 331 329 328 325 323 322 322 323 322 319 316 312 309 306 304 301 298 295 292 290 290 290 289 287 285 283 283 280 277 273 271 268 266 264 264 264 263 264 262 255 250 246
171 172 175 173 165 165 170 175 179 178 176 177 177 177 175 177 180 179 180 181 182 182 179 181 187 191 190 181 179 186 164 126 95 69 41 337 313 318 329 338 343 341 336 334 333 331 329 328 328 329 329 326 323 320 317 315 313 310 305 300 296 291 288 287 286 286 286 287 290 290 288 284 279 275 271 267 264 264 265 265 264 261 256 250 245
165 159 160 168 165 167 172 175 179 178 175 177 178 177 175 177 180 179 180 181 182 179 177 181 183 182 180 178 181 166 129 102 78 50 29 10 358 353 347 344 340 337 337 336 336 335 334 335 336 336 333 328 325 323 322 321 317 312 307 303 299 295 291 290 286 278 277 285 288 283 283 286 286 283 278 274 271 268 267 266 264 260 256 252 247
158 158 158 165 167 167 169 174 178 176 174 176 178 176 176 178 178 176 176 175 177 178 180 184 180 178 169 159 150 122 96 61 44 35 19 1 350 345 341 341 341 339 339 339 339 339 338 339 338 336 333 329 328 327 327 326 321 315 310 304 301 298 295 293 289 281 276 280 280 274 274 277 277 278 281 280 281 279 272 267 264 261 257 253 249
159 165 168 169 169 167 169 175 177 173 173 177 178 177 177 178 175 171 169 169 174 179 183 183 174 166 150 134 114 88 65 42 33 13 350 339 336 338 341 344 344 343 342 341 340 339 338 338 336 334 333 332 331 330 328 326 324 320 315 308 302 299 296 294 292 288 283 278 276 273 269 267 270 275 279 281 284 285 279 273 268 264 261 256 252
178 169 173 174 171 170 172 176 175 172 173 176 178 176 175 178 177 170 165 167 174 179 179 176 166 149 128 111 95 82 61 48 16 332 328 332 338 341 343 342 341 341 341 339 337 335 335 334 333 332 332 331 330 328 327 326 325 324 320 312 304 298 295 294 293 291 286 279 276 275 273 271 271 273 274 276 282 283 277 275 272 265 264 260 254
186 180 185 181 173 174 177 176 176 175 175 176 176 176 177 179 179 171 167 172 177 178 170 162 151 125 105 100 105 113 81 7 339 335 337 341 344 340 336 332 333 335 334 332 332 331 330 329 330 330 330 330 328 327 328 329 328 326 322 312 304 301 297 293 291 291 288 283 278 277 281 279 270 266 265 267 273 276 275 275 273 267 263 261 255
188 194 205 195 180 180 179 176 177 177 177 175 170 174 178 178 178 171 170 177 174 167 156 144 129 106 109 134 122 128 340 340 339 342 340 337 336 333 329 329 329 328 326 326 327 328 329 329 330 331 330 329 329 330 331 331 330 327 322 314 306 302 298 293 292 291 290 291 286 281 285 286 276 264 258 262 269 272 273 273 273 269 260 257 255
189 191 201 204 193 186 181 178 179 179 177 173 167 170 174 174 176 171 168 172 163 155 152 147 144 140 157 243 312 320 333 337 337 334 327 327 330 329 326 324 325 323 323 325 328 332 334 333 333 332 331 331 332 334 334 335 334 331 328 325 318 308 302 298 295 294 294 297 295 288 283 283 287 274 255 260 269 269 270 270 268 264 258 256 255
191 189 194 204 200 189 184 181 180 179 178 174 170 170 172 175 177 171 166 166 160 158 168 169 157 151 274 312 315 324 332 332 329 322 319 325 327 323 319 321 324 325 327 329 334 339 337 336 335 334 335 336 337 337 337 338 338 339 338 330 320 312 308 304 298 299 300 299 298 296 287 280 287 289 271 266 267 263 266 269 266 258 257 262 261
188 184 187 199 201 192 187 182 180 181 179 176 173 170 172 178 177 173 171 173 173 173 181 183 164 254 300 306 312 323 329 328 324 318 320 326 324 319 321 326 331 332 332 336 342 344 341 340 340 339 340 341 341 340 339 340 342 345 344 333 321 314 313 311 305 303 305 305 303 300 296 285 281 284 281 278 273 267 268 270 269 263 260 265 267
183 179 184 194 198 192 187 185 185 184 180 177 175 169 169 174 177 181 180 179 182 178 180 218 299 308 306 310 318 327 331 329 322 316 320 324 322 323 327 333 339 340 340 345 350 350 346 345 344 344 346 345 344 342 341 342 343 346 345 339 334 330 327 323 313 306 304 306 309 304 299 292 283 279 275 273 274 274 274 271 269 265 261 265 269
183 181 184 192 196 191 187 187 188 187 184 181 175 168 167 172 178 189 185 177 181 187 229 296 310 311 312 318 325 329 328 321 314 314 319 321 322 327 332 338 345 346 348 353 356 353 348 347 348 349 349 349 347 345 344 344 344 345 345 346 349 349 345 339 329 320 310 307 309 308 304 296 291 286 278 271 269 272 274 273 272 269 264 266 271
186 186 187 191 195 191 188 188 188 186 183 180 173 168 171 172 175 187 190 185 195 229 278 301 310 312 315 321 326 326 318 311 312 318 321 321 326 334 336 341 348 348 350 357 356 351 349 350 352 353 354 353 351 348 347 345 345 346 347 350 354 354 351 347 344 341 331 323 320 318 313 305 297 292 288 281 273 270 271 273 276 275 270 270 272
187 188 189 191 192 191 189 188 186 181 176 174 170 168 174 176 176 187 199 209 232 268 293 304 311 314 317 321 326 323 312 312 319 323 322 323 334 345 343 344 352 352 353 356 353 350 354 356 356 358 359 358 356 352 350 348 349 351 352 352 353 352 352 349 349 351 349 344 340 335 329 321 309 297 293 289 280 273 272 271 273 274 273 271 271
185 188 189 190 190 190 191 185 179 174 171 170 170 172 179 182 185 195 211 239 266 287 302 308 312 313 314 317 319 314 310 314 317 318 321 330 345 353 348 348 358 359 354 353 352 354 359 0 1 4 5 5 3 359 356 354 354 356 356 357 357 356 357 355 352 354 354 351 349 344 339 337 330 317 305 296 287 281 278 277 277 276 273 270 269
182 186 186 188 188 190 191 185 177 173 170 170 172 176 182 186 192 204 225 256 279 296 304 306 309 310 308 307 307 305 306 309 310 317 331 346 355 354 350 353 359 359 357 358 360 4 6 8 12 15 14 14 10 6 2 359 358 358 358 359 1 3 3 2 359 357 356 354 350 343 342 344 341 332 325 316 303 291 285 283 280 276 272 270 269
178 184 185 185 187 189 191 186 181 176 173 172 174 177 182 188 196 211 239 268 286 298 304 306 310 310 305 301 298 297 300 302 313 332 351 360 357 352 354 359 0 1 5 8 10 15 19 23 25 25 23 21 16 12 8 5 3 1 1 2 3 4 6 5 2 360 358 357 354 350 346 344 341 339 338 335 325 310 295 289 285 280 276 273 272
178 186 188 189 190 191 191 186 179 175 174 175 178 181 184 192 203 221 250 276 290 300 306 308 309 306 299 296 293 295 301 309 327 348 360 359 356 359 2 1 3 9 15 18 23 30 34 33 31 30 30 27 22 18 14 11 10 7 5 7 6 5 4 3 360 357 357 357 357 358 356 349 344 344 342 337 332 326 316 306 299 291 285 281 278
177 183 185 186 189 191 191 186 177 173 175 178 182 186 188 199 217 241 269 285 293 302 306 305 300 293 288 288 290 297 307 319 341 357 357 358 1 4 4 4 15 29 32 33 37 41 38 34 34 35 34 31 27 24 19 15 14 13 11 11 9 6 4 2 1 1 2 3 359 360 2 358 353 351 348 343 337 333 329 324 317 309 299 289 282
174 178 178 181 186 187 185 182 176 174 176 179 184 189 194 210 242 273 284 288 295 301 301 293 284 279 276 279 287 295 305 325 355 3 2 5 6 9 14 22 38 51 50 46 46 44 41 38 39 39 36 33 31 26 20 17 17 18 17 15 13 12 12 11 11 10 12 12 8 4 3 0 357 354 352 350 345 339 335 333 328 323 318 308 290
170 173 175 178 182 180 175 173 173 175 179 182 185 190 198 221 262 283 290 294 297 297 288 278 273 269 265 278 289 291 306 342 4 11 13 12 14 28 42 47 54 58 56 54 52 47 46 45 43 41 38 36 34 30 26 25 26 27 25 23 22 21 22 21 18 16 16 17 17 14 11 8 4 358 355 355 352 344 339 338 337 332 328 327 312
171 174 176 178 179 175 171 171 174 177 179 180 183 189 205 242 276 290 296 296 290 280 270 266 264 259 266 279 276 271 336 26 31 25 24 33 49 60 62 60 60 60 57 57 55 50 47 46 44 44 42 38 36 36 34 33 32 30 28 27 27 25 24 24 22 21 22 22 22 22 21 19 16 10 5 2 357 352 347 340 338 340 335 334 338
175 177 177 177 176 175 174 174 174 174 174 174 179 190 215 259 282 290 292 283 267 255 251 248 241 236 241 243 227 132 61 55 47 42 51 68 76 74 69 67 63 58 56 54 53 49 46 46 46 44 39 34 33 34 34 33 31 27 24 23 23 22 23 24 26 27 28 28 28 28 28 26 23 21 17 11 5 1 358 350 341 340 341 340 347
171 172 171 171 172 173 174 173 171 170 170 172 178 195 242 280 289 289 278 258 245 243 237 230 227 219 200 187 149 106 87 68 64 78 86 87 84 79 74 70 62 57 57 54 51 49 44 41 36 31 29 25 24 25 27 29 27 24 22 21 20 22 24 27 30 32 33 35 36 36 34 32 28 26 24 20 16 11 6 1 352 343 340 340 342
164 163 162 163 165 168 171 169 167 166 165 172 183 213 280 297 296 282 254 238 245 247 233 229 225 196 167 148 127 108 93 88 94 98 97 92 88 82 76 70 62 58 57 52 48 43 36 30 25 23 23 20 18 22 26 28 27 27 28 27 27 30 31 31 34 39 40 40 41 40 37 36 33 32 31 28 26 24 19 14 8 360 351 345 342
157 155 154 157 163 167 167 163 161 161 163 171 190 259 293 295 289 267 242 243 259 252 233 221 184 154 143 136 126 112 107 108 107 103 99 94 88 81 73 66 61 56 52 46 39 31 26 24 21 21 23 25 27 31 33 32 31 32 32 33 35 36 37 39 43 47 46 43 42 41 38 37 34 33 33 31 29 29 27 25 23 19 13 4 356
149 150 154 159 163 163 162 161 162 163 167 174 200 268 283 278 263 250 252 265 265 242 213 173 146 140 137 132 124 118 116 112 108 104 98 92 85 77 71 66 60 53 48 42 35 33 32 30 30 32 35 38 40 40 38 35 32 31 30 32 35 37 39 43 46 47 45 41 40 40 40 39 36 33 33 31 29 28 28 29 29 27 27 25 20
152 156 159 160 161 161 163 164 164 166 172 180 210 248 254 241 233 253 271 272 247 197 164 146 139 135 133 128 124 122 118 113 108 104 98 90 82 77 73 68 61 54 50 47 44 44 44 45 47 49 49 47 45 42 38 33 29 28 26 25 27 30 35 39 40 39 37 37 37 38 41 42 39 36 33 31 29 29 28 30 31 32 33 36 37
157 161 164 162 162 164 165 165 165 169 173 180 200 205 204 211 236 262 265 234 177 154 145 140 135 132 130 127 124 122 117 112 108 103 97 89 83 79 75 70 65 60 57 55 54 53 53 54 55 54 50 48 46 43 38 32 28 27 25 23 23 24 28 30 31 31 30 32 34 34 37 39 38 36 34 30 29 31 32 33 33 35 37 40 44
161 164 165 164 164 166 167 165 165 167 169 176 187 183 185 212 245 252 210 164 152 145 143 141 136 132 130 126 123 119 115 112 108 102 96 91 87 83 79 74 70 66 63 62 59 58 57 54 52 49 46 46 46 43 38 32 30 28 25 25 25 25 26 28 29 31 31 31 31 30 31 32 32 32 34 32 29 30 33 35 36 37 39 42 44
163 165 166 166 167 167 167 165 162 163 165 173 178 174 176 205 231 212 172 159 156 150 147 144 136 131 128 123 119 116 113 110 107 103 99 95 91 87 82 78 75 71 69 66 61 58 57 53 50 48 46 48 48 43 37 34 32 30 29 28 30 31 32 33 34 35 35 32 31 32 33 33 32 32 32 33 32 30 30 34 38 40 41 42 43
164 166 168 170 170 168 168 165 160 158 159 160 161 161 160 160 175 185 167 158 160 159 152 145 136 129 125 121 118 117 115 112 110 106 102 98 94 92 89 84 80 76 71 66 62 59 57 54 53 52 51 52 50 44 38 36 34 34 33 33 36 38 38 39 40 39 39 37 36 35 35 35 35 34 33 34 35 34 30 29 34 39 41 42 40
169 171 171 171 171 172 171 165 156 155 155 150 149 156 159 150 146 159 157 156 164 164 154 145 137 130 126 123 122 122 120 116 114 110 106 104 101 97 92 87 83 78 71 65 62 60 59 59 59 59 59 58 55 48 43 40 39 39 39 40 43 45 46 46 45 45 44 43 41 40 37 35 34 34 33 34 36 40 39 35 35 38 39 38 34
172 174 173 173 175 175 171 164 160 161 159 153 157 169 177 172 162 155 155 158 163 160 151 144 138 132 129 129 128 128 125 120 118 116 113 110 104 97 92 88 84 77 70 68 68 67 68 68 67 65 65 64 61 55 49 46 45 45 45 46 48 50 52 52 51 50 49 47 45 43 41 38 36 34 32 30 32 37 41 42 41 40 39 36 32
174 175 175 175 177 175 168 165 164 163 162 162 167 176 181 182 170 158 157 157 159 158 151 145 141 136 133 134 133 132 129 124 121 121 117 110 103 97 94 89 84 80 78 78 78 77 76 74 71 68 66 67 65 59 53 50 48 47 48 50 51 52 53 52 51 50 48 46 44 42 40 38 36 35 32 30 31 32 33 36 37 36 35 35 35
179 177 175 175 176 173 168 167 166 165 166 169 172 177 183 182 170 163 161 157 156 158 155 149 144 140 138 138 137 135 131 127 127 125 117 110 104 99 96 91 89 89 88 86 84 81 78 75 71 67 64 65 64 58 53 51 47 46 49 51 52 52 53 53 51 49 48 45 42 39 37 35 33 32 31 30 33 35 36 37 36 33 33 33 31
179 175 174 174 175 173 169 168 168 168 169 170 174 180 183 183 173 166 163 158 156 158 158 153 147 143 141 141 139 137 134 130 130 125 115 110 106 102 100 99 97 95 91 87 85 81 77 71 66 64 61 61 61 58 53 51 49 48 51 54 54 53 53 53 52 49 47 45 42 39 36 34 33 30 29 29 31 34 38 39 39 36 34 33 27
178 175 174 174 174 171 168 169 170 169 168 170 177 181 182 185 174 165 163 161 159 160 158 153 149 145 144 143 141 138 135 132 128 122 114 111 108 106 106 104 99 94 90 87 83 78 73 69 65 63 61 60 61 60 57 56 55 53 54 56 56 54 54 53 51 49 46 44 41 39 36 35 34 32 31 32 33 35 38 41 41 40 39 38 33
177 176 175 173 171 168 168 173 174 170 168 171 175 179 187 185 169 163 163 163 158 154 152 149 147 146 145 144 141 137 134 131 126 120 116 113 110 109 107 103 97 91 88 85 80 76 73 71 69 67 65 64 65 65 63 61 59 57 56 58 58 56 54 52 51 49 46 43 41 39 36 35 35 35 36 38 38 39 41 43 44 45 45 44 41
179 178 176 172 170 169 168 171 172 168 167 171 173 181 187 175 165 162 162 158 151 146 145 145 145 147 145 142 139 136 133 130 125 121 119 114 111 110 107 101 95 90 88 85 81 79 78 77 75 72 71 70 68 67 65 63 61 59 57 57 57 56 54 53 52 50 47 44 43 41 38 36 36 38 39 41 43 44 44 46 47 47 46 46 45
176 175 173 169 169 171 167 164 164 164 165 169 171 178 176 167 161 159 154 150 145 141 143 145 146 146 144 140 138 135 132 129 125 122 120 116 114 113 106 99 96 93 90 88 86 84 83 81 78 75 72 70 67 64 62 60 58 57 55 55 55 54 53 52 52 51 48 46 45 45 43 40 39 41 42 44 45 47 47 48 48 47 46 46 47
173 172 171 168 167 167 163 159 159 158 163 171 167 163 164 161 157 154 149 146 144 143 146 147 146 145 142 139 138 136 133 129 125 123 121 118 117 114 106 102 100 97 95 93 90 88 84 81 79 75 72 69 65 62 60 58 56 55 54 54 53 52 51 50 50 51 49 47 47 49 47 45 43 45 46 46 47 47 48 49 47 46 45 46 47
171 171 172 168 163 161 160 158 159 161 166 170 164 158 159 158 155 152 150 147 146 147 149 150 148 146 144 142 141 138 135 130 127 126 124 119 117 114 109 106 104 101 100 96 92 88 83 82 81 77 73 70 66 64 61 58 57 56 55 54 53 52 51 50 50 52 51 48 49 49 49 48 49 50 50 50 49 49 50 50 49 47 47 47 47
171 170 169 165 162 162 161 159 163 168 164 161 164 163 159 157 156 154 151 149 149 152 154 153 151 148 147 146 144 140 137 132 129 128 124 119 119 117 112 110 108 105 101 96 92 89 86 84 84 81 77 74 71 68 64 61 60 58 57 56 55 54 53 52 53 55 54 53 53 52 52 53 52 52 52 51 52 53 52 52 51 50 49 48 48
169 167 164 164 164 163 161 160 162 163 157 155 163 166 161 157 158 156 153 153 154 156 157 156 154 152 150 149 147 142 138 133 130 129 125 121 120 119 116 115 112 107 101 96 94 93 90 89 87 84 82 79 75 72 69 66 64 62 61 59 57 57 56 56 57 59 59 59 60 58 57 56 55 54 54 55 55 55 55 55 54 52 51 50 49
168 166 164 166 165 161 162 164 159 154 154 156 161 165 163 162 162 158 156 158 159 160 160 159 158 156 154 153 150 145 139 136 133 131 128 124 123 122 118 114 109 104 100 98 99 99 97 95 92 89 86 83 80 77 73 70 68 66 65 64 62 61 60 60 61 63 62 62 62 61 59 59 58 57 57 58 57 56 55 56 56 55 54 52 51
168 168 168 169 167 164 166 165 155 152 158 161 162 165 169 169 167 162 160 162 162 162 163 162 161 160 157 155 153 147 142 139 137 135 133 129 128 126 120 113 107 104 103 103 104 105 103 100 97 95 92 88 84 80 76 73 70 69 69 68 66 64 63 62 62 63 63 62 61 60 58 57 56 56 56 56 56 56 56 56 56 56 54 52 51
169 170 171 171 170 169 168 163 155 157 164 166 166 170 174 173 170 166 163 163 163 164 166 166 164 162 160 158 154 150 147 145 142 140 138 134 132 128 122 116 111 109 108 108 107 106 103 101 100 98 94 89 84 80 76 73 70 69 68 68 67 66 64 63 62 62 63 62 61 60 58 56 54 54 54 54 55 55 56 55 55 55 53 51 49
171 171 172 173 173 172 170 165 160 160 163 165 167 170 172 172 170 165 163 164 164 165 167 166 164 164 163 160 156 153 152 150 148 147 143 138 133 126 121 119 116 112 110 108 106 104 100 98 97 94 90 87 83 79 77 73 70 67 66 66 66 66 64 64 62 61 62 62 60 59 57 55 53 52 52 52 53 53 53 54 53 52 52 51 50
172 171 171 173 174 173 170 165 160 158 160 163 165 167 168 169 166 162 163 165 165 166 166 165 165 165 164 161 159 156 155 154 152 152 149 143 136 130 125 123 119 114 110 107 105 102 100 97 93 90 87 86 83 81 78 75 71 68 65 65 66 66 64 63 61 59 60 60 59 58 57 55 53 52 51 50 50 49 50 51 51 50 50 50 49